x

Stingray Point, Va (44058) Weather Station

11:50pm - Fri 24th Oct 2014 All times are EDT. -4 hours from GMT.

  • Wind
    11mph, 13mph gusts
  • Air Temp 60°f
  • Sea Pressure 1014.6mb
  • Stingray Point, Va
  • Stingray Point, Va

More Historic Weather Station data

Upgrade to MSW Pro to gain access to the past 30 days of data for over 8000 Wavebouys and Weather Stations around the globe.

Join Pro

Comparision Forecast

View Surf forecast
   
Fri 10/24 11:50pm  -   -  11 13 mph 1014.6mb - 60f
11:40pm  -   -  11
mph
1014.7mb - 60f
11:30pm  -   -  9 11 mph 1014.7mb - 60f
11:20pm  -   -  9 11 mph 1014.7mb - 60f
11:10pm  -   -  9 11 mph 1014.6mb - 61f
11:00pm 0.7ft  -  9 11 mph 1014.5mb 63f 62f
10:50pm  -   -  7 9 mph 1014.5mb - 62f
10:40pm  -   -  9
mph
1014.4mb - 61f
10:30pm  -   -  9
mph
1014.3mb - 61f
10:20pm  -   -  9 11 mph 1014.3mb - 61f
10:10pm  -   -  9 11 mph 1014.3mb - 61f
10:00pm 0.7ft  -  9 11 mph 1014.4mb 63f 62f
9:50pm  -   -  9
mph
1014.3mb - 62f
9:40pm  -   -  9
mph
1014.2mb - 62f
9:30pm  -   -  9
mph
1014.2mb - 62f
9:20pm  -   -  9
mph
1014.1mb - 62f
9:10pm  -   -  9
mph
1014.1mb - 62f
9:00pm 0.7ft  -  9 11 mph 1014mb 63f 62f
8:50pm  -   -  9
mph
1014mb - 62f
8:40pm  -   -  7 9 mph 1014.1mb - 62f
8:30pm  -   -  7 9 mph 1014.1mb - 62f
8:20pm  -   -  9 11 mph 1014.1mb - 62f
8:10pm  -   -  9 11 mph 1014.1mb - 63f
8:00pm 1ft 2s 9 11 mph 1014mb 63f 64f
7:50pm  -   -  11 13 mph 1013.8mb - 64f
7:40pm  -   -  11 13 mph 1013.8mb - 64f
7:30pm  -   -  11 13 mph 1013.8mb - 64f
7:20pm  -   -  11 16 mph 1013.8mb - 64f
7:10pm  -   -  13 16 mph 1013.8mb - 64f
7:00pm 0.7ft  -  11 13 mph 1013.8mb 63f 65f
6:50pm  -   -  11 16 mph 1013.7mb - 65f
6:40pm  -   -  11 13 mph 1013.5mb - 65f
6:30pm  -   -  11 13 mph 1013.5mb - 65f
6:20pm  -   -  9 11 mph 1013.5mb - 65f
6:10pm  -   -  9 11 mph 1013.4mb - 65f
6:00pm 0.7ft  -  7 9 mph 1013.4mb 64f 65f
5:50pm  -   -  9 11 mph 1013.3mb - 65f
5:40pm  -   -  9 11 mph 1013.3mb - 66f
5:30pm  -   -  11 13 mph 1013.2mb - 66f
5:20pm  -   -  13
mph
1013.1mb - 66f
5:10pm  -   -  13 16 mph 1013.1mb - 66f
5:00pm 1ft 2s 11 13 mph 1013.1mb 64f 66f
4:50pm  -   -  11 13 mph 1013mb - 66f
4:40pm  -   -  11 13 mph 1013mb - 66f
4:30pm  -   -  13
mph
1013mb - 66f
4:20pm  -   -  13 16 mph 1013mb - 65f
4:10pm  -   -  16 18 mph 1013mb - 65f
4:00pm 1ft 2s 16 18 mph 1013mb 63f 65f
3:50pm  -   -  16 18 mph 1013mb - 65f
3:40pm  -   -  16 18 mph 1013mb - 64f
3:30pm  -   -  16 20 mph 1012.9mb - 65f
3:20pm  -   -  18 20 mph 1013mb - 64f
3:10pm  -   -  18 20 mph 1013.1mb - 64f
3:00pm 1.3ft 2s 18 22 mph 1013.1mb 61f 63f
2:50pm  -   -  18 22 mph 1013.1mb - 63f
2:40pm  -   -  20 22 mph 1013.1mb - 62f
2:30pm  -   -  20 22 mph 1013mb - 62f
2:20pm  -   -  18 22 mph 1013.1mb - 62f
2:10pm  -   -  18 22 mph 1013.3mb - 62f
2:00pm 1.3ft 2s 18 22 mph 1013.3mb 62f 62f
1:50pm  -   -  18 22 mph 1013.5mb - 61f
1:40pm  -   -  18 20 mph 1013.6mb - 61f
1:30pm  -   -  18 22 mph 1013.9mb - 61f
1:20pm  -   -  18 22 mph 1014mb - 61f
1:10pm  -   -  18 22 mph 1014mb - 61f
1:00pm 1.6ft 3s 18 20 mph 1014.2mb 63f 61f
12:50pm  -   -  18 22 mph 1014.2mb - 61f
12:40pm  -   -  18 20 mph 1014.3mb - 61f
12:30pm  -   -  20 22 mph 1014.6mb - 60f
12:20pm  -   -  18 22 mph 1014.8mb - 60f
12:10pm  -   -  18 22 mph 1015mb - 60f
12:00pm 1.3ft 3s 16 18 mph 1015.1mb 63f 61f
11:50am  -   -  13 16 mph 1015.2mb - 61f
11:40am  -   -  13 18 mph 1015.2mb - 61f
11:30am  -   -  13 18 mph 1015.1mb - 60f
11:20am  -   -  16 20 mph 1015mb - 60f
11:10am  -   -  16 20 mph 1015mb - 60f
11:00am 1.6ft 3s 16 20 mph 1015.1mb 63f 60f
10:50am  -   -  16 20 mph 1015.1mb - 59f
10:40am  -   -  16 18 mph 1015.2mb - 59f
10:30am  -   -  16 20 mph 1015.3mb - 59f
10:20am  -   -  18 22 mph 1015.3mb - 59f
10:10am  -   -  18 22 mph 1015.3mb - 58f
10:00am 1.6ft 3s 18 22 mph 1015.3mb 63f 58f
9:50am  -   -  18 22 mph 1015.2mb - 58f
9:40am  -   -  18 22 mph 1015.2mb - 58f
9:30am  -   -  20 22 mph 1015mb - 58f
9:20am  -   -  20 25 mph 1015mb - 58f
9:10am  -   -  20 25 mph 1015.1mb - 58f
9:00am 1.6ft 3s 20 22 mph 1015mb 63f 58f
8:50am  -   -  20 25 mph 1014.9mb - 58f
8:40am  -   -  20 27 mph 1014.8mb - 58f
8:30am  -   -  20 25 mph 1014.8mb - 57f
8:20am  -   -  20 25 mph 1014.9mb - 57f
8:10am  -   -  20 25 mph 1015mb - 58f
8:00am 1.6ft 3s 20 25 mph 1015mb 63f 58f
7:50am  -   -  20 25 mph 1015mb - 57f
7:40am  -   -  20 25 mph 1014.9mb - 57f
7:30am  -   -  20 25 mph 1014.6mb - 57f
7:20am  -   -  20 27 mph 1014.4mb - 57f
7:10am  -   -  22 25 mph 1014.1mb - 57f
7:00am 1.3ft 2s 22 27 mph 1014.1mb 63f 57f
6:50am  -   -  20 27 mph 1014.3mb - 57f
6:40am  -   -  20 25 mph 1014.3mb - 57f
6:30am  -   -  20 22 mph 1014.2mb - 58f
6:20am  -   -  18 22 mph 1014.1mb - 58f
6:10am  -   -  20 22 mph 1014mb - 57f
6:00am 1.3ft 2s 18 22 mph 1014mb 64f 57f
5:50am  -   -  20 25 mph 1014.1mb - 58f
5:40am  -   -  18 22 mph 1014.1mb - 58f
5:30am  -   -  18 22 mph 1014mb - 58f
5:20am  -   -  18 22 mph 1013.9mb - 58f
5:10am  -   -  18 22 mph 1013.8mb - 58f
5:00am 1.6ft 2s 18 22 mph 1013.6mb 64f 58f
4:50am  -   -  18 22 mph 1013.4mb - 58f
4:40am  -   -  20 25 mph 1013.1mb - 58f
4:30am  -   -  20 25 mph 1012.8mb - 58f
4:20am  -   -  20 25 mph 1012.6mb - 59f
4:10am  -   -  20 25 mph 1012.8mb - 59f
4:00am 1.3ft 2s 20 22 mph 1012.9mb 64f 59f
3:50am  -   -  20 25 mph 1013mb - 59f
3:40am  -   -  20 25 mph 1013mb - 59f
3:30am  -   -  20 22 mph 1013mb - 59f
3:20am  -   -  20 22 mph 1013mb - 59f
3:10am  -   -  20 22 mph 1012.9mb - 59f
3:00am 1.6ft 2s 20 22 mph 1013mb 63f 59f
2:50am  -   -  22 25 mph 1013.1mb - 59f
2:40am  -   -  22 27 mph 1013mb - 59f
2:30am  -   -  22 27 mph 1013mb - 59f
2:20am  -   -  22 27 mph 1012.9mb - 59f
2:10am  -   -  22 25 mph 1012.9mb - 60f
2:00am 1.3ft 2s 22 25 mph 1012.9mb 62f 60f
1:50am  -   -  22 25 mph 1012.9mb - 60f
1:40am  -   -  22 27 mph 1012.8mb - 60f
1:30am  -   -  22 27 mph 1012.9mb - 60f
1:20am  -   -  22 27 mph 1012.9mb - 60f
1:10am  -   -  20 25 mph 1013mb - 60f
1:00am 1.3ft 2s 20 22 mph 1013.1mb 63f 60f
12:50am  -   -  20 25 mph 1013mb - 60f
12:40am  -   -  20 25 mph 1012.8mb - 60f
12:30am  -   -  20 25 mph 1012.9mb - 60f
12:20am  -   -  20 22 mph 1012.9mb - 60f
12:10am  -   -  18 20 mph 1012.9mb - 60f
12:00am 1.3ft 2s 16 20 mph 1012.9mb 64f 60f
Thu 10/23 11:50pm  -   -  18 22 mph 1012.8mb - 61f
11:40pm  -   -  20 25 mph 1012.7mb - 62f
11:30pm  -   -  20 25 mph 1012.6mb - 62f
11:20pm  -   -  20 25 mph 1012.5mb - 62f
11:10pm  -   -  20 25 mph 1012.5mb - 62f
11:00pm 1.3ft 3s 22 25 mph 1012.4mb 64f 62f
10:50pm  -   -  20 25 mph 1012.4mb - 62f
10:40pm  -   -  20 25 mph 1012.4mb - 62f
10:30pm  -   -  20 27 mph 1012.4mb - 62f
10:20pm  -   -  20 25 mph 1012.5mb - 62f
10:10pm  -   -  20 25 mph 1012.4mb - 62f
10:00pm 1.3ft 3s 20 22 mph 1012.3mb 64f 62f
9:50pm  -   -  20 25 mph 1012.2mb - 62f
9:40pm  -   -  18 22 mph 1012.1mb - 62f
9:30pm  -   -  20 22 mph 1012mb - 62f
9:20pm  -   -  18 22 mph 1012mb - 62f
9:10pm  -   -  18 20 mph 1012mb - 62f
9:00pm 1.6ft 3s 16 18 mph 1012.1mb 64f 62f
8:50pm  -   -  16 20 mph 1012.1mb - 63f
8:40pm  -   -  16 20 mph 1012.2mb - 63f
8:30pm  -   -  16 18 mph 1012.3mb - 63f
8:20pm  -   -  16 18 mph 1012.2mb - 63f
8:10pm  -   -  16 20 mph 1012.1mb - 63f
8:00pm 1.6ft 3s 16 20 mph 1012.1mb 64f 63f
7:50pm  -   -  16 20 mph 1012.2mb - 63f
7:40pm  -   -  16 20 mph 1012.2mb - 63f
7:30pm  -   -  16 20 mph 1012.3mb - 63f
7:20pm  -   -  18 22 mph 1012.2mb - 63f
7:10pm  -   -  18 27 mph 1012.1mb - 63f
7:00pm 2ft 3s 20 25 mph 1012.1mb 64f 63f
6:50pm  -   -  22 27 mph 1012mb - 63f
6:40pm  -   -  22 29 mph 1011.8mb - 64f
6:30pm  -   -  22 27 mph 1011.6mb - 64f
6:20pm  -   -  22 29 mph 1011.5mb - 64f
6:10pm  -   -  20 25 mph 1011.4mb - 64f
6:00pm 2ft 3s 16 20 mph 1011.3mb 64f 64f
5:50pm  -   -  20 22 mph 1011.1mb - 64f
5:40pm  -   -  20 27 mph 1011.1mb - 64f
5:30pm  -   -  22 27 mph 1010.9mb - 64f
5:20pm  -   -  22 25 mph 1010.8mb - 64f
5:10pm  -   -  20 25 mph 1010.8mb - 64f
5:00pm 1.6ft 2s 20 25 mph 1010.7mb 64f 64f
4:50pm  -   -  20 27 mph 1010.5mb - 65f
4:40pm  -   -  20 25 mph 1010.4mb - 65f
4:30pm  -   -  22 25 mph 1010.4mb - 65f
4:20pm  -   -  20 31 mph 1010.3mb - 65f
4:10pm  -   -  22 25 mph 1010.4mb - 64f
4:00pm 2ft 2s 22 29 mph 1010.4mb 64f 64f
3:50pm  -   -  25 31 mph 1010.4mb - 64f
3:40pm  -   -  25 31 mph 1010.4mb - 64f
3:30pm  -   -  25 31 mph 1010.3mb - 64f
3:20pm  -   -  25 29 mph 1010.3mb - 64f
3:10pm  -   -  22 27 mph 1010.2mb - 64f
3:00pm 1.6ft 2s 22 27 mph 1010.1mb 62f 63f
2:50pm  -   -  18 25 mph 1010.3mb - 63f
2:40pm  -   -  18 22 mph 1010.4mb - 62f
2:30pm  -   -  20 22 mph 1010.5mb - 62f
2:20pm  -   -  18 22 mph 1010.6mb - 62f
2:10pm  -   -  20 25 mph 1010.8mb - 62f
2:00pm 1.6ft 3s 20 25 mph 1011mb 63f 61f
1:50pm  -   -  20 27 mph 1011.2mb - 61f
1:40pm  -   -  18 25 mph 1011.3mb - 61f
1:30pm  -   -  22 29 mph 1011.3mb - 61f
1:20pm  -   -  20 27 mph 1011.4mb - 60f
1:10pm  -   -  22 27 mph 1011.3mb - 60f
1:00pm 2ft 3s 20 29 mph 1011.5mb 63f 60f
12:50pm  -   -  20 27 mph 1011.5mb - 60f
12:40pm  -   -  20 27 mph 1011.5mb - 60f
12:30pm  -   -  22 27 mph 1011.6mb - 59f
12:20pm  -   -  22 29 mph 1011.6mb - 59f
12:10pm  -   -  20 25 mph 1011.7mb - 59f
12:00pm 2ft 3s 22 29 mph 1011.6mb 64f 59f
11:50am  -   -  20 25 mph 1011.7mb - 59f
11:40am  -   -  22 27 mph 1011.8mb - 59f
11:30am  -   -  20 27 mph 1011.9mb - 59f
11:20am  -   -  22 27 mph 1012mb - 58f
11:10am  -   -  22 29 mph 1011.8mb - 58f
11:00am 2ft 3s 22 27 mph 1011.8mb 63f 58f
10:40am  -   -  22 27 mph 1011.8mb - 58f
10:30am  -   -  22 27 mph 1011.9mb - 57f
10:20am  -   -  22 27 mph 1012.2mb - 57f
10:10am  -   -  22 29 mph 1012.2mb - 57f
10:00am 2ft 3s 22 27 mph 1012.2mb 64f 57f
9:50am  -   -  22 27 mph 1012.2mb - 56f
9:40am  -   -  22 29 mph 1012.1mb - 56f
9:30am  -   -  22 29 mph 1012.1mb - 56f
9:20am  -   -  25 29 mph 1012.2mb - 56f
9:10am  -   -  25 29 mph 1012.1mb - 56f
9:00am 2.5ft 3s 25 29 mph 1012.1mb 64f 56f
8:50am  -   -  22 29 mph 1012.1mb - 56f
8:40am  -   -  22 29 mph 1012.2mb - 55f
8:30am  -   -  22 29 mph 1012.1mb - 56f
8:20am  -   -  22 29 mph 1012.1mb - 56f
8:10am  -   -  22 29 mph 1012.1mb - 56f
8:00am 2.5ft 3s 22 29 mph 1012mb 64f 55f
7:50am  -   -  25 29 mph 1012mb - 55f
7:40am  -   -  22 27 mph 1011.9mb - 55f
7:30am  -   -  22 27 mph 1011.9mb - 55f
7:20am  -   -  22 29 mph 1011.8mb - 55f
7:10am  -   -  22 29 mph 1011.8mb - 55f
7:00am 2.5ft 3s 25 29 mph 1011.8mb 64f 55f
6:50am  -   -  25 29 mph 1011.6mb - 55f
6:40am  -   -  25 29 mph 1011.6mb - 55f
6:30am  -   -  25 29 mph 1011.5mb - 55f
6:20am  -   -  25 29 mph 1011.5mb - 55f
6:10am  -   -  22 29 mph 1011.4mb - 55f
6:00am 2.5ft 3s 25 31 mph 1011.3mb 64f 55f
5:50am  -   -  25 29 mph 1011.3mb - 55f
5:40am  -   -  25 34 mph 1011.2mb - 55f
5:30am  -   -  25 29 mph 1011.2mb - 55f
5:20am  -   -  25 29 mph 1011.3mb - 55f
5:10am  -   -  25 31 mph 1011.3mb - 55f
5:00am 2.5ft 3s 27 31 mph 1011.1mb 64f 55f
4:50am  -   -  27 31 mph 1011mb - 55f
4:40am  -   -  27 34 mph 1011mb - 55f
4:30am  -   -  25 31 mph 1011.1mb - 55f
4:20am  -   -  25 31 mph 1011mb - 55f
4:10am  -   -  27 31 mph 1010.9mb - 55f
4:00am 2ft 3s 27 34 mph 1010.8mb 64f 55f
3:50am  -   -  27 31 mph 1010.9mb - 55f
3:40am  -   -  25 31 mph 1010.9mb - 55f
3:30am  -   -  22 29 mph 1011.1mb - 55f
3:20am  -   -  22 27 mph 1011.1mb - 55f
3:10am  -   -  22 27 mph 1011.3mb - 55f
3:00am 2ft 3s 22 29 mph 1011.4mb 65f 56f
2:50am  -   -  22 29 mph 1011.4mb - 56f
2:40am  -   -  25 29 mph 1011.5mb - 56f
2:30am  -   -  25 29 mph 1011.5mb - 56f
2:20am  -   -  25 31 mph 1011.5mb - 56f
2:10am  -   -  25 29 mph 1011.6mb - 56f
2:00am 2.5ft 3s 25 29 mph 1011.6mb 64f 56f
1:50am  -   -  25 31 mph 1011.7mb - 56f
1:40am  -   -  25 29 mph 1011.7mb - 56f
1:30am  -   -  25 29 mph 1011.7mb - 56f
1:20am  -   -  25 29 mph 1011.9mb - 56f
1:10am  -   -  25 31 mph 1011.9mb - 56f
1:00am 2ft 3s 25 29 mph 1012mb 63f 56f
12:50am  -   -  25 31 mph 1012.1mb - 56f
12:40am  -   -  25 29 mph 1012.1mb - 56f
12:30am  -   -  22 29 mph 1012.1mb - 56f
12:20am  -   -  22 29 mph 1012.1mb - 56f
12:10am  -   -  25 29 mph 1012.2mb - 56f
12:00am 2.5ft 3s 22 29 mph 1012.2mb 65f 56f
Wed 10/22 11:50pm  -   -  22 29 mph 1012.2mb - 56f
11:40pm  -   -  22 27 mph 1012.3mb - 56f
11:30pm  -   -  22 29 mph 1012.3mb - 56f
11:20pm  -   -  22 27 mph 1012.3mb - 56f
11:10pm  -   -  20 29 mph 1012.3mb - 56f
11:00pm 2.5ft 3s 22 27 mph 1012.4mb 65f 56f
10:50pm  -   -  22 29 mph 1012.5mb - 56f
10:40pm  -   -  25 31 mph 1012.5mb - 57f
10:30pm  -   -  25 29 mph 1012.5mb - 57f
10:20pm  -   -  25 29 mph 1012.6mb - 57f
10:10pm  -   -  22 29 mph 1012.5mb - 57f
10:00pm 2.5ft 3s 25 29 mph 1012.5mb 65f 57f
9:50pm  -   -  22 29 mph 1012.5mb - 57f
9:40pm  -   -  22 29 mph 1012.5mb - 57f
9:30pm  -   -  25 31 mph 1012.5mb - 57f
9:20pm  -   -  22 29 mph 1012.4mb - 57f
9:10pm  -   -  22 29 mph 1012.4mb - 57f
9:00pm 3ft 3s 25 29 mph 1012.3mb 65f 57f
8:50pm  -   -  22 29 mph 1012.2mb - 56f
8:40pm  -   -  25 29 mph 1012.2mb - 57f
8:30pm  -   -  25 29 mph 1012.2mb - 56f
8:20pm  -   -  22 29 mph 1012.2mb - 56f
8:10pm  -   -  25 31 mph 1012.2mb - 56f
8:00pm 2.5ft 3s 25 29 mph 1012.2mb 65f 56f
7:50pm  -   -  25 31 mph 1012.2mb - 57f
7:40pm  -   -  25 31 mph 1012.1mb - 57f
7:30pm  -   -  25 31 mph 1012mb - 57f
7:20pm  -   -  25 34 mph 1011.9mb - 57f
7:10pm  -   -  27 36 mph 1011.6mb - 57f
7:00pm 3ft 3s 25 31 mph 1011.5mb 65f 57f
6:50pm  -   -  25 31 mph 1011.5mb - 57f
6:40pm  -   -  27 31 mph 1011.4mb - 57f
6:30pm  -   -  27 34 mph 1011.3mb - 57f
6:20pm  -   -  27 34 mph 1011.1mb - 57f
6:10pm  -   -  27 34 mph 1011mb - 57f
6:00pm 2.5ft 3s 27 36 mph 1011mb 65f 57f
5:50pm  -   -  27 31 mph 1011mb - 57f
5:40pm  -   -  27 31 mph 1010.9mb - 57f
5:30pm  -   -  25 31 mph 1010.9mb - 57f
5:20pm  -   -  27 36 mph 1010.7mb - 57f
5:10pm  -   -  27 34 mph 1010.6mb - 57f
5:00pm 2.5ft 3s 27 31 mph 1010.5mb 65f 57f
4:50pm  -   -  27 34 mph 1010.4mb - 57f
4:40pm  -   -  27 31 mph 1010.4mb - 57f
4:30pm  -   -  27 34 mph 1010.3mb - 57f
4:20pm  -   -  27 34 mph 1010.4mb - 57f
4:10pm  -   -  27 34 mph 1010.4mb - 57f
4:00pm 2.5ft 3s 27 31 mph 1010.4mb 65f 57f
3:50pm  -   -  25 31 mph 1010.4mb - 57f
3:40pm  -   -  27 34 mph 1010.4mb - 57f
3:30pm  -   -  25 31 mph 1010.4mb - 57f
3:20pm  -   -  25 31 mph 1010.5mb - 57f
3:10pm  -   -  22 27 mph 1010.5mb - 57f
3:00pm 2.5ft 3s 22 27 mph 1010.5mb 65f 57f
2:50pm  -   -  25 31 mph 1010.4mb - 57f
2:40pm  -   -  22 27 mph 1010.4mb - 57f
2:30pm  -   -  25 29 mph 1010.3mb - 57f
2:20pm  -   -  22 29 mph 1010.2mb - 58f
2:10pm  -   -  22 29 mph 1010.2mb - 57f
2:00pm 2ft 3s 22 27 mph 1010.3mb 65f 58f
1:50pm  -   -  20 27 mph 1010.3mb - 58f
1:40pm  -   -  22 27 mph 1010.3mb - 57f
1:30pm  -   -  22 27 mph 1010.3mb - 58f
1:20pm  -   -  22 27 mph 1010.4mb - 58f
1:10pm  -   -  22 27 mph 1010.3mb - 58f
1:00pm 2.5ft 3s 22 27 mph 1010.3mb 65f 58f
12:50pm  -   -  25 29 mph 1010.3mb - 58f
12:40pm  -   -  25 31 mph 1010.4mb - 58f
12:30pm  -   -  25 29 mph 1010.5mb - 58f
12:20pm  -   -  25 31 mph 1010.5mb - 58f
12:10pm  -   -  25 31 mph 1010.5mb - 58f
12:00pm 2.5ft 3s 22 29 mph 1010.6mb 65f 59f
11:50am  -   -  22 29 mph 1010.5mb - 59f
11:40am  -   -  22 27 mph 1010.5mb - 58f
11:30am  -   -  22 27 mph 1010.5mb - 58f
11:20am  -   -  20 27 mph 1010.5mb - 58f
11:10am  -   -  20 25 mph 1010.4mb - 58f
11:00am 2ft 3s 20 27 mph 1010.5mb 65f 58f
10:50am  -   -  20 22 mph 1010.5mb - 57f
10:40am  -   -  20 25 mph 1010.5mb - 57f
10:30am  -   -  20 27 mph 1010.4mb - 57f
10:20am  -   -  22 27 mph 1010.3mb - 57f
10:10am  -   -  20 29 mph 1010.3mb - 57f
10:00am 2.5ft 3s 22 31 mph 1010.2mb 65f 57f
9:50am  -   -  22 27 mph 1010.2mb - 58f
9:40am  -   -  18 25 mph 1010.3mb - 57f
9:30am  -   -  18 22 mph 1010.5mb - 57f
9:20am  -   -  18 22 mph 1010.5mb - 58f
9:10am  -   -  20 25 mph 1010.5mb - 58f
9:00am 2ft 3s 20 25 mph 1010.4mb 65f 58f
8:50am  -   -  20 25 mph 1010.2mb - 58f
8:40am  -   -  20 25 mph 1010.1mb - 57f
8:30am  -   -  20 25 mph 1010mb - 57f
8:20am  -   -  20 25 mph 1010mb - 57f
8:10am  -   -  20 25 mph 1009.9mb - 57f
8:00am 2ft 3s 20 25 mph 1010mb 65f 57f
7:50am  -   -  18 22 mph 1010.1mb - 57f
7:40am  -   -  18 20 mph 1010.1mb - 56f
7:30am  -   -  18 22 mph 1010mb - 56f
7:20am  -   -  18 25 mph 1009.8mb - 56f
7:10am  -   -  18 25 mph 1009.8mb - 56f
7:00am 1.6ft 3s 18 20 mph 1009.8mb 66f 56f
6:50am  -   -  16 20 mph 1009.9mb - 56f
6:40am  -   -  18 20 mph 1009.8mb - 57f
6:30am  -   -  18 25 mph 1009.7mb - 57f
6:20am  -   -  18 22 mph 1009.8mb - 57f
6:10am  -   -  18 22 mph 1010.1mb - 57f
6:00am 1.6ft 3s 18 20 mph 1010.2mb 66f 57f
5:50am  -   -  18 22 mph 1010.2mb - 57f
5:40am  -   -  18 20 mph 1010.1mb - 57f
5:30am  -   -  18 20 mph 1010.2mb - 56f
5:20am  -   -  18 20 mph 1010.1mb - 56f
5:10am  -   -  18 22 mph 1009.8mb - 57f
5:00am 1.3ft 2s 18 20 mph 1009.8mb 66f 57f
4:50am  -   -  16 20 mph 1009.7mb - 57f
4:40am  -   -  16 20 mph 1009.8mb - 57f
4:30am  -   -  16 20 mph 1010mb - 57f
4:20am  -   -  16 18 mph 1010.1mb - 57f
4:10am  -   -  16 18 mph 1010mb - 57f
4:00am 1.3ft 2s 16 20 mph 1009.9mb 66f 57f
3:50am  -   -  18 20 mph 1009.9mb - 57f
3:40am  -   -  16 18 mph 1009.9mb - 57f
3:30am  -   -  16 18 mph 1009.9mb - 57f
3:20am  -   -  16 18 mph 1010.1mb - 57f
3:10am  -   -  16 18 mph 1010.2mb - 57f
3:00am 1.3ft 2s 13 18 mph 1010.4mb 66f 57f
2:50am  -   -  13 16 mph 1010.5mb - 57f
2:40am  -   -  13 16 mph 1010.5mb - 57f
2:30am  -   -  11 16 mph 1010.6mb - 57f
2:20am  -   -  11 16 mph 1010.6mb - 57f
2:10am  -   -  13 16 mph 1010.7mb - 57f
2:00am 1.3ft 2s 13 16 mph 1010.7mb 66f 57f
1:50am  -   -  13 18 mph 1010.9mb - 57f
1:40am  -   -  13 18 mph 1010.8mb - 57f
1:30am  -   -  16 18 mph 1010.7mb - 57f
1:20am  -   -  16 20 mph 1010.7mb - 58f
1:10am  -   -  18 20 mph 1010.9mb - 58f
1:00am 1.3ft 2s 18 20 mph 1010.8mb 66f 58f
12:50am  -   -  16 20 mph 1010.7mb - 58f
12:40am  -   -  16 20 mph 1011mb - 58f
12:30am  -   -  16 18 mph 1011.5mb - 58f
12:20am  -   -  16 18 mph 1011.5mb - 58f
12:10am  -   -  13 16 mph 1011.7mb - 58f
12:00am 1.6ft 3s 13 18 mph 1011.8mb 66f 58f
Tue 10/21 11:50pm  -   -  13 16 mph 1011.9mb - 59f
11:40pm  -   -  13 18 mph 1011.6mb - 59f
11:30pm  -   -  16 20 mph 1011.5mb - 59f
11:20pm  -   -  16 20 mph 1011.4mb - 59f
11:10pm  -   -  16 20 mph 1011.4mb - 59f
11:00pm 1.6ft 3s 16 20 mph 1011.6mb 66f 59f
10:50pm  -   -  18 22 mph 1011.6mb - 59f
10:40pm  -   -  20 22 mph 1011.5mb - 59f
10:30pm  -   -  20 27 mph 1011.5mb - 60f
10:20pm  -   -  20 25 mph 1011.4mb - 60f
10:10pm  -   -  20 27 mph 1011.3mb - 60f
10:00pm 1.6ft 3s 22 25 mph 1011.2mb 66f 60f
9:50pm  -   -  22 27 mph 1011.1mb - 60f
9:40pm  -   -  20 25 mph 1011.1mb - 60f
9:30pm  -   -  20 25 mph 1011.2mb - 60f
9:20pm  -   -  22 27 mph 1011.2mb - 60f
9:10pm  -   -  20 31 mph 1011.3mb - 63f
9:00pm 0.7ft  -  2 7 mph 1010.7mb 66f 65f
8:50pm  -   -  4 7 mph 1010.6mb - 65f
8:40pm  -   -  2 7 mph 1010.6mb - 67f
8:30pm  -   -  4 7 mph 1010.5mb - 67f
8:20pm  -   -  7
mph
1010.5mb - 67f
8:10pm  -   -  7 9 mph 1010.5mb - 67f
8:00pm 0.7ft  -  9
mph
1010.4mb 66f 67f
7:50pm  -   -  9
mph
1010.4mb - 67f
7:40pm  -   -  9
mph
1010.4mb - 66f
7:30pm  -   -  9
mph
1010.4mb - 66f
7:20pm  -   -  7 9 mph 1010.4mb - 66f
7:10pm  -   -  7 9 mph 1010.3mb - 66f
7:00pm 0.7ft  -  7 9 mph 1010.3mb 66f 66f
6:50pm  -   -  7 9 mph 1010.3mb - 66f
6:40pm  -   -  9
mph
1010.1mb - 66f
6:30pm  -   -  9
mph
1010.3mb - 66f
6:20pm  -   -  7 9 mph 1010.3mb - 66f
6:10pm  -   -  7
mph
1010.3mb - 66f
6:00pm 0.7ft  -  7 9 mph 1010.3mb 67f 66f
5:50pm  -   -  7 9 mph 1010.3mb - 66f
5:40pm  -   -  9
mph
1010.2mb - 66f
5:30pm  -   -  9
mph
1010.1mb - 66f
5:20pm  -   -  9
mph
1010.1mb - 66f
5:10pm  -   -  9
mph
1010.1mb - 66f
5:00pm 0.7ft  -  9
mph
1010.1mb 66f 66f
4:50pm  -   -  7 9 mph 1010.1mb - 66f
4:40pm  -   -  7 9 mph 1010.1mb - 66f
4:30pm  -   -  7 9 mph 1010.2mb - 66f
4:20pm  -   -  7 9 mph 1010.2mb - 66f
4:10pm  -   -  7 9 mph 1010.2mb - 66f
4:00pm 0.3ft  -  7 9 mph 1010.2mb 67f 66f
3:50pm  -   -  7 9 mph 1010.2mb - 66f
3:40pm  -   -  7 9 mph 1010.2mb - 66f
3:30pm  -   -  7 9 mph 1010.2mb - 66f
3:20pm  -   -  7 9 mph 1010.3mb - 66f
3:10pm  -   -  7 9 mph 1010.3mb - 66f
3:00pm 0.3ft  -  7 9 mph 1010.2mb 67f 66f
2:50pm  -   -  7 9 mph 1010.3mb - 66f
2:40pm  -   -  9
mph
1010.3mb - 66f
2:30pm  -   -  7 9 mph 1010.3mb - 66f
2:20pm  -   -  7 9 mph 1010.4mb - 66f
2:10pm  -   -  7
mph
1010.5mb - 66f
2:00pm 0.3ft  -  4 7 mph 1010.7mb 67f 66f
1:50pm  -   -  2 4 mph 1010.8mb - 66f
1:40pm  -   -  2 4 mph 1011mb - 66f
1:30pm  -   -  2 4 mph 1011mb - 66f
1:20pm  -   -  2 4 mph 1010.9mb - 66f
1:10pm  -   -  2
mph
1011.1mb - 66f
1:00pm 0.3ft  -  2 4 mph 1011.3mb 66f 66f
12:50pm  -   -  4 7 mph 1011.4mb - 66f
12:40pm  -   -  7 9 mph 1011.5mb - 65f
12:30pm  -   -  7 9 mph 1011.6mb - 65f
12:20pm  -   -  7 9 mph 1011.7mb - 65f
12:10pm  -   -  7
mph
1011.8mb - 65f
12:00pm 0.3ft  -  7 9 mph 1011.8mb 66f 65f
11:50am  -   -  9 11 mph 1011.9mb - 64f
11:40am  -   -  9 11 mph 1012mb - 64f
11:30am  -   -  9 11 mph 1012mb - 64f
11:20am  -   -  7 9 mph 1012mb - 64f
11:10am  -   -  9
mph
1012.1mb - 65f
11:00am 0.7ft  -  9 11 mph 1012mb 66f 64f
10:50am  -   -  9 11 mph 1012.2mb - 65f
10:40am  -   -  7 9 mph 1012.3mb - 65f
10:30am  -   -  7 9 mph 1012.5mb - 64f
10:20am  -   -  7 9 mph 1012.6mb - 64f
10:10am  -   -  9
mph
1012.7mb - 64f
10:00am 0.7ft  -  9 11 mph 1012.8mb 66f 63f
9:50am  -   -  11 13 mph 1012.9mb - 64f
9:40am  -   -  11 13 mph 1012.9mb - 63f
9:30am  -   -  11 16 mph 1013mb - 64f
9:20am  -   -  13 16 mph 1013mb - 63f
9:10am  -   -  13 16 mph 1013mb - 63f
9:00am 0.7ft  -  13 16 mph 1012.9mb 66f 63f
8:50am  -   -  13 16 mph 1012.9mb - 63f
8:40am  -   -  11 13 mph 1012.8mb - 63f
8:30am  -   -  11 13 mph 1012.8mb - 63f
8:20am  -   -  11
mph
1012.8mb - 63f
8:10am  -   -  11 13 mph 1012.8mb - 63f
8:00am 1ft 2s 11 13 mph 1012.7mb 66f 63f
7:50am  -   -  13
mph
1012.8mb - 63f
7:40am  -   -  11 13 mph 1012.8mb - 63f
7:30am  -   -  11 13 mph 1012.7mb - 63f
7:20am  -   -  11
mph
1012.6mb - 63f
7:10am  -   -  11 13 mph 1012.6mb - 62f
7:00am 0.7ft  -  13
mph
1012.5mb 65f 62f
6:50am  -   -  13 16 mph 1012.4mb - 62f
6:40am  -   -  13
mph
1012.4mb - 62f
6:30am  -   -  13 16 mph 1012.4mb - 62f
6:20am  -   -  11 13 mph 1012.3mb - 62f
6:10am  -   -  11 13 mph 1012.2mb - 62f
6:00am 1ft 2s 13 16 mph 1012.2mb 65f 62f
5:50am  -   -  13 16 mph 1012.1mb - 62f
5:40am  -   -  11 16 mph 1012.1mb - 62f
5:30am  -   -  9 13 mph 1012.1mb - 62f
5:20am  -   -  9 11 mph 1012.3mb - 62f
5:10am  -   -  9 11 mph 1012.5mb - 62f
5:00am 1ft 3s 11 13 mph 1012.5mb 65f 63f
4:50am  -   -  11 13 mph 1012.4mb - 63f
4:40am  -   -  9 13 mph 1012.5mb - 63f